Weather History for LFKJ - September, 2013

Change the Weather History Date:

Monday, September 9, 2013

  Actual Average Record
Temperature  
Mean Temperature 73 °F -  
Max Temperature 82 °F 74 °F 86 °F (2002)
Min Temperature 64 °F 56 °F 51 °F (1996)
Cooling Degree Days 8    
Growing Degree Days 23 (Base 50)    
Moisture  
Dew Point 60 °F    
Average Humidity 64    
Maximum Humidity 88    
Minimum Humidity 25    
Precipitation  
Precipitation 0.00 in 0.07 in - ()
Sea Level Pressure  
Sea Level Pressure 30.12 in    
Wind  
Wind Speed 6 mph ()    
Max Wind Speed 17 mph    
Max Gust Speed -    
Visibility 6.3 miles    
Events Rain    
Averages and records for this station are not official NWS values.
T = Trace of Precipitation, MM = Missing Value Source: Averaged Metar Reports

Daily Weather History Graph

Daily Weather History Graph

Search for Another Location

Airport or City:

Trip Planner

Search our weather history database for the weather conditions in past years. The results will help you decide how hot, cold, wet, or windy it might be!

Date:

Astronomy

Sep. 09, 2013 Rise Set
Actual Time 6:58 AM CEST 7:44 PM CEST
Civil Twilight 6:30 AM CEST 8:12 PM CEST
Nautical Twilight 5:56 AM CEST 8:46 PM CEST
Astronomical Twilight 5:22 AM CEST 9:20 PM CEST
Moon 11:07 AM CEST (9/9) 9:44 PM CEST (9/9)
Length of Visible Light 13h 42m
Length of Day
12h 46m
Waxing Crescent, 16% of the Moon is Illuminated
Sep 9
Waxing Crescent
Sep 12
First Quarter
Sep 19
Full
Sep 27
Last Quarter
Oct 5
New

Hourly Weather History & Observations

Time (CEST) Temp. Heat Index Dew Point Humidity Pressure Visibility Wind Dir Wind Speed Gust Speed Precip Events Conditions
12:00 AM 73.4 °F - 66.2 °F 78% 30.12 in 6.2 mi West 3.5 mph - N/A Rain Light Rain
12:30 AM 73.4 °F - 66.2 °F 78% 30.12 in 6.2 mi ESE 3.5 mph - N/A   Mostly Cloudy
1:00 AM 73.4 °F - 64.4 °F 73% 30.09 in 6.2 mi ENE 3.5 mph - N/A   Mostly Cloudy
1:30 AM 73.4 °F - 64.4 °F 73% 30.12 in 6.2 mi East 3.5 mph - N/A   Unknown
2:00 AM 72 °F - 66 °F 75% 30.14 in 28 mi WNW 4.6 mph - -   Clear
2:00 AM 73.4 °F - 66.2 °F 78% 30.12 in 6.2 mi WNW 4.6 mph - N/A   Unknown
2:30 AM 71.6 °F - 64.4 °F 78% 30.12 in 6.2 mi ESE 4.6 mph - N/A   Unknown
3:00 AM 69.8 °F - 64.4 °F 83% 30.12 in 6.2 mi ENE 3.5 mph - N/A   Unknown
3:30 AM 71.6 °F - 64.4 °F 78% 30.12 in 6.2 mi NE 3.5 mph - N/A   Overcast
4:00 AM 69.8 °F - 64.4 °F 83% 30.09 in 6.2 mi NE 4.6 mph - N/A   Overcast
4:30 AM 69.8 °F - 64.4 °F 83% 30.09 in 6.2 mi NE 4.6 mph - N/A   Overcast
5:00 AM 68.0 °F - 64.4 °F 88% 30.09 in 6.2 mi NE 5.8 mph - N/A   Overcast
5:30 AM 68.0 °F - 64.4 °F 88% 30.09 in 6.2 mi NE 5.8 mph - N/A   Mostly Cloudy
6:00 AM 68.0 °F - 62.6 °F 83% 30.09 in 6.2 mi ENE 5.8 mph - N/A   Partly Cloudy
6:30 AM 69.8 °F - 64.4 °F 83% 30.09 in 6.2 mi NNE 3.5 mph - N/A   Unknown
7:00 AM 68.0 °F - 64.4 °F 88% 30.09 in 6.2 mi East 3.5 mph - N/A   Scattered Clouds
7:30 AM 68.0 °F - 64.4 °F 88% 30.09 in 6.2 mi NE 5.8 mph - N/A   Mostly Cloudy
8:00 AM 68 °F - 64 °F 84% 30.12 in 12 mi ENE 4.6 mph - -   Scattered Clouds
8:00 AM 68.0 °F - 64.4 °F 88% 30.09 in 6.2 mi ENE 4.6 mph - N/A   Mostly Cloudy
8:30 AM 69.8 °F - 66.2 °F 88% 30.09 in 6.2 mi NE 4.6 mph - N/A   Mostly Cloudy
9:00 AM 73.4 °F - 66.2 °F 78% 30.09 in 6.2 mi NE 5.8 mph - N/A   Scattered Clouds
9:30 AM 77.0 °F - 66.2 °F 69% 30.09 in 6.2 mi Variable 3.5 mph - N/A   Mostly Cloudy
10:00 AM 77.0 °F - 66.2 °F 69% 30.09 in 6.2 mi SSW 3.5 mph - N/A   Mostly Cloudy
10:30 AM 78.8 °F - 66.2 °F 65% 30.12 in 6.2 mi SW 5.8 mph - N/A   Mostly Cloudy
11:00 AM 78.8 °F - 66.2 °F 65% 30.12 in 6.2 mi SW 10.4 mph - N/A   Scattered Clouds
11:30 AM 80.6 °F 82.7 °F 66.2 °F 61% 30.12 in 6.2 mi SW 12.7 mph - N/A   Scattered Clouds
12:00 PM 80.6 °F 80.5 °F 55.4 °F 42% 30.12 in 6.2 mi WSW 15.0 mph - N/A   Mostly Cloudy
12:30 PM 80.6 °F 80.3 °F 53.6 °F 39% 30.12 in 6.2 mi West 13.8 mph - N/A   Mostly Cloudy
1:00 PM 82.4 °F - 46.4 °F 28% 30.12 in 6.2 mi NW 10.4 mph - N/A   Mostly Cloudy
1:30 PM 82.4 °F - 48.2 °F 30% 30.12 in 6.2 mi WNW 9.2 mph - N/A   Scattered Clouds
2:00 PM 81 °F - 51 °F 25% 30.14 in 28 mi WSW 13.8 mph - -   Scattered Clouds
2:00 PM 82.4 °F 81.4 °F 53.6 °F 37% 30.12 in 6.2 mi WSW 12.7 mph - N/A   Scattered Clouds
2:30 PM 80.6 °F 80.5 °F 55.4 °F 42% 30.12 in 6.2 mi WSW 15.0 mph - N/A   Mostly Cloudy
3:00 PM 80.6 °F 80.5 °F 55.4 °F 42% 30.12 in 6.2 mi WSW 17.3 mph - N/A   Mostly Cloudy
3:30 PM 80.6 °F - 51.8 °F 37% 30.12 in 6.2 mi WSW 13.8 mph - N/A   Mostly Cloudy
4:00 PM 80.6 °F 80.3 °F 53.6 °F 39% 30.12 in 6.2 mi WSW 13.8 mph - N/A   Mostly Cloudy
4:30 PM 78.8 °F - 59.0 °F 51% 30.12 in 6.2 mi SW 15.0 mph - N/A   Mostly Cloudy
5:00 PM 75.2 °F - 57.2 °F 53% 30.12 in 6.2 mi SW 13.8 mph - N/A   Mostly Cloudy
5:30 PM 77.0 °F - 57.2 °F 50% 30.12 in 6.2 mi WSW 12.7 mph - N/A   Mostly Cloudy
6:00 PM 77.0 °F - 55.4 °F 47% 30.12 in 6.2 mi WSW 12.7 mph - N/A   Mostly Cloudy
6:30 PM 75.2 °F - 57.2 °F 53% 30.12 in 6.2 mi West 13.8 mph - N/A   Mostly Cloudy
7:00 PM 73.4 °F - 55.4 °F 53% 30.12 in 6.2 mi West 12.7 mph - N/A   Mostly Cloudy
7:30 PM 73.4 °F - 55.4 °F 53% 30.12 in 6.2 mi WSW 11.5 mph - N/A   Mostly Cloudy
8:00 PM 72 °F - 55 °F 46% 30.15 in 28 mi WSW 8.1 mph - -   Scattered Clouds
8:00 PM 71.6 °F - 55.4 °F 57% 30.12 in 6.2 mi West 8.1 mph - N/A   Mostly Cloudy
8:30 PM 71.6 °F - 55.4 °F 57% 30.12 in 6.2 mi WNW 6.9 mph - N/A   Mostly Cloudy
9:00 PM 69.8 °F - 55.4 °F 60% 30.15 in 6.2 mi NNE 3.5 mph - N/A   Mostly Cloudy
9:30 PM 66.2 °F - 55.4 °F 68% 30.15 in 6.2 mi NE 6.9 mph - N/A   Mostly Cloudy
10:00 PM 66.2 °F - 55.4 °F 68% 30.15 in 6.2 mi NE 5.8 mph - N/A   Mostly Cloudy
10:30 PM 66.2 °F - 55.4 °F 68% 30.15 in 6.2 mi NE 8.1 mph - N/A   Mostly Cloudy
11:00 PM 64.4 °F - 55.4 °F 73% 30.15 in 6.2 mi NE 9.2 mph - N/A   Mostly Cloudy
11:30 PM 64.4 °F - 55.4 °F 73% 30.15 in 6.2 mi NE 9.2 mph - N/A   Mostly Cloudy